Watertown, NY

7:17 AM EST on November 21, 2019 (GMT -0500)
Watertown International

Weather History for KART - September, 2019

Change the Weather History Date:

Wednesday, September 11, 2019

  Actual Average Record
Temperature  
Mean Temperature 74 °F 61 °F  
Max Temperature 78 °F 72 °F 89 °F (1961)
Min Temperature 69 °F 50 °F 31 °F (1967)
Degree Days  
Heating Degree Days 0 5  
Month to date heating degree days 50 43  
Since 1 July heating degree days 79 115  
Cooling Degree Days 9 1  
Month to date cooling degree days 13 21  
Year to date cooling degree days 334 345  
Growing Degree Days 20 (Base 50)    
Moisture  
Dew Point 66 °F    
Average Humidity 82    
Maximum Humidity 90    
Minimum Humidity 73    
Precipitation  
Precipitation 0.16 in 0.11 in 2.43 in (1978)
Month to date precipitation 2.21 1.19  
Year to date precipitation 30.30 22.99  
Sea Level Pressure  
Sea Level Pressure 30.06 in    
Wind  
Wind Speed 8 mph (SW)    
Max Wind Speed 18 mph    
Max Gust Speed 25 mph    
Visibility 7 miles    
Events Rain    
T = Trace of Precipitation, MM = Missing Value Source: NWS Daily Summary

Daily Weather History Graph

Daily Weather History Graph

Search for Another Location

Airport or City:

Astronomy

Sep. 11, 2019 Rise Set
Actual Time 6:38 AM EDT 7:22 PM EDT
Civil Twilight 6:09 AM EDT 7:51 PM EDT
Nautical Twilight 5:34 AM EDT 8:25 PM EDT
Astronomical Twilight 4:58 AM EDT 9:01 PM EDT
Moon 6:39 PM EDT (9/11) 3:51 AM EDT (9/11)
Length of Visible Light 13h 42m
Length of Day
12h 43m
Waxing Gibbous, 94% of the Moon is Illuminated
Sep 11
Waxing Gibbous
Sep 14
Full
Sep 21
Last Quarter
Sep 28
New
Oct 5
First Quarter

Hourly Weather History & Observations

Time (EDT) Temp. Dew Point Humidity Pressure Visibility Wind Dir Wind Speed Gust Speed Precip Events Conditions
12:56 AM 73.9 °F 64.9 °F 73% 30.03 in 10.0 mi South 8.1 mph - N/A   Scattered Clouds
1:56 AM 73.0 °F 64.9 °F 76% 30.05 in 10.0 mi WSW 8.1 mph - N/A   Overcast
2:56 AM 70.0 °F 66.9 °F 90% 30.06 in 3.0 mi SW 8.1 mph - 0.05 in Rain Rain
3:03 AM 70.0 °F 66.9 °F 90% 30.07 in 2.5 mi SW 9.2 mph - 0.01 in Rain Rain
3:08 AM 70.0 °F 66.9 °F 90% 30.07 in 3.0 mi SW 9.2 mph - 0.03 in Rain Rain
3:20 AM 70.0 °F 66.9 °F 90% 30.05 in 2.5 mi SSW 11.5 mph 18.4 mph 0.05 in Rain Rain
3:29 AM 69.1 °F 66.9 °F 93% 30.06 in 3.0 mi SSW 10.4 mph 18.4 mph 0.07 in Rain Light Rain
3:44 AM 69.1 °F 66.9 °F 93% 30.05 in 3.0 mi SSW 6.9 mph - 0.08 in Rain Rain
3:56 AM 69.1 °F 66.9 °F 93% 30.04 in 3.0 mi SSW 8.1 mph - 0.09 in Rain Light Rain
4:14 AM 69.1 °F 66.9 °F 93% 30.05 in 3.0 mi SSW 8.1 mph - 0.02 in Rain Light Rain
4:56 AM 69.1 °F 66.9 °F 93% 30.05 in 6.0 mi WSW 5.8 mph - 0.02 in   Overcast
5:56 AM 69.1 °F 66.9 °F 93% 30.05 in 4.0 mi SW 6.9 mph - N/A   Overcast
6:27 AM 69.1 °F 66.9 °F 93% 30.06 in 5.0 mi SW 8.1 mph - N/A   Overcast
6:56 AM 69.1 °F 66.9 °F 93% 30.06 in 5.0 mi SW 8.1 mph - N/A   Overcast
7:05 AM 69.1 °F 66.9 °F 93% 30.07 in 5.0 mi SW 10.4 mph - N/A   Overcast
7:56 AM 69.1 °F 66.9 °F 93% 30.06 in 5.0 mi SSW 9.2 mph - N/A   Overcast
8:38 AM 70.0 °F 66.9 °F 90% 30.08 in 7.0 mi SW 9.2 mph - N/A   Overcast
8:56 AM 71.1 °F 66.9 °F 87% 30.06 in 8.0 mi SW 10.4 mph - N/A   Overcast
9:56 AM 71.1 °F 68.0 °F 90% 30.06 in 8.0 mi WSW 6.9 mph - N/A   Overcast
10:35 AM 72.0 °F 68.0 °F 87% 30.07 in 8.0 mi WSW 11.5 mph - N/A   Overcast
10:56 AM 71.1 °F 68.0 °F 90% 30.06 in 7.0 mi WSW 10.4 mph - N/A   Overcast
11:56 AM 72.0 °F 68.0 °F 87% 30.06 in 7.0 mi WSW 5.8 mph - N/A   Overcast
12:18 PM 73.9 °F 69.1 °F 85% 30.07 in 7.0 mi SW 10.4 mph - N/A   Overcast
12:56 PM 75.0 °F 68.0 °F 79% 30.06 in 8.0 mi WSW 10.4 mph - N/A   Mostly Cloudy
1:14 PM 73.9 °F 68.0 °F 82% 30.07 in 8.0 mi WSW 8.1 mph - N/A   Mostly Cloudy
1:21 PM 75.0 °F 69.1 °F 82% 30.07 in 9.0 mi WSW 8.1 mph - N/A   Mostly Cloudy
1:47 PM 77.0 °F 69.1 °F 76% 30.07 in 10.0 mi West 10.4 mph - N/A   Scattered Clouds
1:56 PM 77.0 °F 69.1 °F 76% 30.05 in 10.0 mi SW 9.2 mph - N/A   Partly Cloudy
2:56 PM 77.0 °F 68.0 °F 74% 30.04 in 9.0 mi SW 10.4 mph - N/A   Clear
3:56 PM 77.0 °F 68.0 °F 74% 30.04 in 9.0 mi SW 12.7 mph - N/A   Clear
4:56 PM 75.9 °F 66.9 °F 74% 30.02 in 10.0 mi SW 11.5 mph - N/A   Clear
5:56 PM 75.0 °F 66.9 °F 76% 30.02 in 10.0 mi SW 8.1 mph - N/A   Partly Cloudy
6:56 PM 72.0 °F 66.9 °F 84% 30.03 in 8.0 mi SSW 4.6 mph - N/A   Scattered Clouds
7:56 PM 70.0 °F 66.0 °F 87% 30.05 in 8.0 mi SSW 4.6 mph - N/A   Clear
8:24 PM 70.0 °F 66.0 °F 87% 30.08 in 7.0 mi NNE 16.1 mph - N/A   Mostly Cloudy
8:56 PM 68.0 °F 57.0 °F 68% 30.09 in 10.0 mi NNE 11.5 mph - N/A   Overcast
9:13 PM 66.9 °F 57.0 °F 70% 30.10 in 10.0 mi NNE 11.5 mph - N/A   Overcast
9:56 PM 66.0 °F 57.0 °F 73% 30.08 in 10.0 mi NNE 11.5 mph - N/A   Overcast
10:56 PM 63.0 °F 54.0 °F 72% 30.10 in 10.0 mi ENE 11.5 mph - N/A   Overcast
11:56 PM 61.0 °F 53.1 °F 75% 30.11 in 10.0 mi NNE 11.5 mph - N/A   Mostly Cloudy